Temp
62 62 62 62 61 61 61 61 62 62 62 62 62 61 61 61 60 60 65 77 75 73 73 76 77 75 74 71 75 73 61 56 61 68 71 75 77 82 85 79 82 83 80 83 84
62 62 62 61 61 61 61 61 61 61 61 61 61 61 61 61 57 62 75 75 75 74 77 74 71 74 69 70 72 68 58 64 73 77 75 76 78 80 78 77 76 78 83 84 84
61 61 61 61 61 61 61 61 61 61 61 61 61 60 60 60 63 75 77 76 74 77 79 76 75 73 65 66 70 67 66 70 80 83 80 79 77 81 75 68 76 74 79 82 83
60 61 61 61 61 61 61 61 61 62 61 61 60 60 60 59 62 78 77 76 75 81 78 74 71 63 63 64 69 66 77 76 79 80 80 77 79 79 77 76 81 81 82 81 79
60 60 60 60 60 60 61 61 61 61 60 60 60 61 59 64 70 80 77 76 79 81 79 73 66 66 62 68 71 66 75 81 81 81 79 82 78 76 74 81 83 84 82 79 78
59 60 60 60 60 60 60 60 60 60 60 60 61 60 61 62 82 80 81 78 80 76 78 77 72 73 68 69 68 74 75 74 79 78 79 77 77 78 77 82 81 81 78 79 79
59 59 59 59 60 60 60 60 59 60 60 61 62 66 63 70 85 80 80 79 80 82 79 81 78 73 73 71 72 76 72 74 76 79 75 81 73 74 80 82 79 80 80 80 79
59 59 59 59 60 60 60 60 60 61 61 62 64 64 63 80 80 79 77 79 82 83 85 87 82 74 69 71 76 71 70 60 71 78 79 76 64 75 81 79 78 80 81 81 78
59 58 59 59 60 60 60 60 61 62 62 64 59 61 64 81 80 84 83 84 84 84 85 94 80 71 73 64 61 64 60 59 69 73 77 71 66 77 81 80 77 79 80 81 79
59 58 58 58 59 59 59 59 62 62 64 70 74 63 71 76 83 87 85 87 83 82 81 78 72 66 62 61 53 57 59 60 62 73 70 67 69 76 79 79 77 78 79 79 78
59 58 58 58 59 59 57 64 69 65 66 68 71 71 77 82 89 85 88 85 79 74 65 70 64 59 66 67 68 66 63 64 71 76 71 68 71 74 77 79 77 77 78 79 78
58 58 58 58 59 59 54 63 66 72 62 75 78 77 82 81 77 82 87 75 70 63 66 63 59 71 74 73 68 66 64 64 69 75 70 66 68 76 77 77 78 78 77 79 78
57 57 58 58 59 60 62 68 73 71 57 68 75 76 76 79 75 77 82 74 67 63 65 60 68 75 72 71 67 65 61 63 65 71 71 68 62 68 73 76 79 80 80 80 79
57 57 57 56 60 57 63 73 75 68 49 62 71 77 79 79 73 85 84 77 67 65 64 64 74 72 68 68 67 60 73 72 70 62 57 67 52 61 67 71 73 77 76 78 79
57 57 57 56 53 55 68 70 73 65 42 73 73 84 79 74 74 77 84 76 67 68 65 64 67 68 66 70 73 70 74 70 68 61 56 61 56 60 67 65 70 75 77 79 80
56 57 56 57 51 59 66 66 64 51 44 68 76 73 70 72 74 77 76 77 76 68 68 66 74 72 71 77 76 80 67 64 59 57 51 58 58 57 61 72 73 76 79 80 80
56 56 54 61 54 62 63 60 49 43 67 67 68 72 69 69 70 72 69 64 61 53 53 64 66 73 78 70 74 71 58 48 48 49 51 62 56 62 69 77 79 75 78 80 81
55 54 53 60 55 59 59 53 41 58 61 72 71 70 66 67 68 69 65 61 64 61 54 52 52 67 78 71 68 66 63 52 45 47 53 59 55 62 71 77 79 82 81 75 76
53 50 53 58 63 61 53 41 46 56 68 66 67 62 61 68 67 66 63 62 66 65 56 52 56 70 75 77 75 64 60 67 57 51 50 53 61 69 73 74 75 74 71 69 69
49 47 50 62 66 59 48 44 52 66 69 68 57 62 56 60 61 60 60 68 67 68 66 59 52 66 72 73 75 70 73 59 51 45 44 52 54 57 66 67 67 66 67 68 69
47 48 60 65 65 53 43 46 58 69 71 65 61 60 60 59 60 59 62 68 68 68 64 60 55 57 65 61 62 64 62 61 60 54 50 47 51 63 67 68 63 63 65 66 70
47 44 64 67 52 48 46 56 59 66 69 66 66 63 60 61 58 60 60 63 70 66 62 61 52 48 57 68 72 69 66 63 54 52 52 53 52 70 71 70 72 69 69 69 68
44 48 64 64 46 46 54 61 64 64 64 65 64 66 64 58 53 60 62 68 69 63 56 58 51 45 51 59 64 63 67 66 58 54 55 52 52 71 69 71 74 71 69 71 69
45 44 53 55 54 52 50 55 57 69 67 68 66 64 59 56 57 56 61 67 67 65 62 60 50 50 47 53 59 58 65 66 59 51 54 56 60 63 67 69 70 69 71 70 69
45 47 51 45 51 52 51 57 58 58 66 64 61 63 59 50 54 55 59 61 62 62 59 54 46 52 58 62 63 63 64 66 62 61 57 59 59 62 63 68 68 68 69 68 68
43 47 50 48 51 52 51 55 58 61 62 60 56 59 59 51 56 53 56 54 55 58 53 51 47 49 52 64 65 61 66 67 67 65 61 64 62 65 67 71 70 69 69 67 68
50 51 49 47 49 49 50 57 60 62 65 66 62 58 57 58 60 59 57 58 58 55 49 49 46 44 43 57 60 55 59 62 62 59 61 55 58 62 64 67 68 68 69 68 69
MSLP
1020.12 1019.69 1019.12 1018.57 1017.99 1017.38 1016.74 1016.17 1015.68 1015.41 1014.87 1014.25 1013.75 1013.43 1013.09 1012.65 1012.07 1011.93 1010.75 1008.11 1007.97 1007.92 1008.34 1008.61 1008.78 1008.86 1008.82 1008.84 1008.61 1008.65 1009.48 1009.51 1008.80 1007.99 1007.47 1007.31 1007.09 1008.21 1008.07 1008.99 1009.39 1009.55 1010.03 1010.57 1012.01
1020.16 1019.56 1019.06 1018.50 1017.85 1017.19 1016.62 1016.13 1015.55 1015.06 1014.58 1013.96 1013.47 1013.10 1012.76 1012.49 1012.06 1010.59 1007.40 1007.27 1007.32 1007.80 1008.13 1008.38 1008.61 1008.85 1008.91 1008.49 1008.29 1008.55 1009.07 1008.15 1007.17 1006.91 1006.74 1007.11 1006.55 1007.45 1008.32 1009.18 1009.63 1009.90 1010.49 1010.81 1011.97
1020.01 1019.38 1018.79 1018.16 1017.52 1016.91 1016.30 1015.75 1015.21 1014.71 1014.15 1013.72 1013.27 1012.84 1012.57 1012.51 1011.47 1008.16 1006.60 1007.03 1007.24 1007.58 1007.71 1008.05 1008.23 1008.45 1008.53 1008.19 1007.74 1007.57 1007.59 1006.82 1005.90 1006.31 1006.03 1006.53 1007.00 1007.33 1008.34 1009.64 1009.06 1009.60 1010.20 1010.89 1011.84
1019.94 1019.48 1018.87 1018.22 1017.50 1016.80 1016.16 1015.54 1014.85 1014.26 1013.85 1013.44 1013.07 1012.67 1012.39 1012.24 1010.09 1006.94 1006.65 1006.97 1007.31 1007.46 1007.62 1007.77 1008.10 1008.28 1008.15 1007.92 1007.34 1007.02 1006.42 1006.39 1005.51 1005.24 1006.08 1006.42 1006.95 1007.57 1007.55 1008.36 1008.78 1009.26 1009.82 1010.49 1011.52
1019.79 1019.22 1018.59 1017.98 1017.32 1016.48 1015.82 1015.18 1014.41 1013.78 1013.54 1013.09 1012.75 1012.45 1012.34 1011.21 1008.49 1006.44 1006.76 1007.11 1007.35 1007.48 1007.51 1007.67 1007.76 1007.89 1007.84 1007.37 1006.97 1006.75 1006.06 1005.04 1004.96 1005.22 1005.74 1006.14 1006.84 1007.45 1007.98 1008.54 1009.04 1009.45 1010.06 1010.75 1011.30
1019.74 1019.16 1018.49 1017.62 1016.77 1016.18 1015.42 1014.58 1013.89 1013.23 1012.97 1012.71 1012.50 1012.49 1012.09 1009.97 1006.47 1006.36 1006.70 1007.24 1007.22 1007.26 1007.30 1007.34 1007.40 1007.34 1007.28 1007.09 1006.98 1006.18 1005.82 1005.44 1004.73 1004.91 1005.47 1005.98 1007.19 1007.16 1008.68 1008.54 1009.10 1009.51 1010.12 1010.65 1011.05
1019.52 1018.86 1018.07 1017.14 1016.41 1015.61 1014.71 1013.88 1013.09 1012.52 1012.36 1012.33 1012.27 1012.21 1011.33 1008.08 1006.28 1006.56 1006.69 1006.79 1006.69 1006.74 1006.88 1006.86 1006.92 1007.21 1006.75 1006.75 1006.38 1006.19 1005.87 1005.09 1004.60 1004.39 1005.65 1005.95 1007.77 1007.97 1008.29 1008.44 1008.97 1009.47 1009.88 1010.30 1010.72
1019.35 1018.72 1017.93 1017.01 1016.08 1015.14 1014.14 1012.94 1012.23 1011.74 1011.76 1011.95 1012.04 1011.79 1009.88 1006.72 1006.54 1006.84 1006.85 1006.57 1006.43 1006.45 1006.60 1006.22 1006.42 1006.59 1006.67 1006.67 1006.50 1006.41 1005.93 1005.75 1004.70 1004.26 1005.58 1005.50 1007.66 1008.20 1008.21 1008.44 1008.99 1009.26 1009.55 1009.97 1010.44
1019.24 1018.63 1017.80 1016.87 1015.87 1014.76 1013.71 1011.98 1011.60 1011.27 1011.44 1011.69 1011.87 1011.23 1008.79 1006.34 1006.74 1006.07 1006.40 1006.18 1006.10 1006.25 1006.35 1006.05 1006.18 1006.74 1006.85 1007.45 1007.70 1007.33 1006.78 1006.14 1005.35 1004.56 1004.91 1005.55 1007.18 1007.47 1007.36 1007.91 1008.67 1008.97 1009.07 1009.52 1009.92
1019.26 1018.55 1017.74 1016.72 1015.59 1014.68 1013.48 1011.53 1011.31 1011.41 1011.57 1011.47 1011.07 1010.86 1008.12 1006.40 1005.63 1005.59 1005.77 1005.85 1006.12 1006.20 1006.38 1006.33 1006.83 1007.40 1007.96 1008.36 1008.60 1007.92 1007.29 1006.39 1005.75 1004.90 1005.16 1005.63 1006.54 1007.16 1007.22 1007.54 1008.15 1008.33 1008.64 1009.18 1009.59
1019.27 1018.56 1017.71 1016.67 1015.41 1014.71 1013.79 1012.04 1011.79 1011.55 1010.99 1010.80 1009.79 1009.10 1007.40 1006.19 1005.03 1005.06 1005.16 1005.69 1006.05 1006.56 1007.08 1007.11 1007.81 1007.91 1007.85 1007.96 1007.70 1007.83 1007.50 1006.89 1005.58 1004.83 1005.49 1005.64 1006.27 1006.83 1007.29 1007.68 1007.90 1008.02 1008.24 1008.72 1008.97
1019.18 1018.49 1017.66 1016.58 1015.21 1014.49 1014.40 1013.94 1013.36 1013.42 1010.67 1009.09 1008.20 1007.64 1006.56 1006.43 1006.36 1005.22 1004.99 1005.93 1006.40 1007.11 1007.35 1007.93 1007.88 1007.34 1007.28 1007.20 1007.54 1007.57 1007.41 1006.79 1005.97 1005.14 1005.76 1005.91 1006.05 1006.26 1006.72 1006.56 1006.67 1007.19 1007.70 1008.01 1008.61
1018.96 1018.37 1017.64 1016.54 1014.83 1014.29 1014.57 1013.31 1012.45 1012.19 1011.47 1007.90 1006.67 1005.94 1005.25 1005.81 1005.75 1005.24 1005.22 1005.69 1006.49 1007.21 1007.51 1007.79 1007.13 1006.73 1007.06 1006.80 1007.01 1007.03 1007.08 1006.59 1006.35 1005.31 1005.08 1005.61 1006.49 1006.78 1006.68 1006.42 1006.55 1006.64 1006.68 1007.32 1007.67
1018.87 1018.31 1017.79 1016.69 1015.01 1015.53 1014.01 1012.65 1012.20 1012.32 1011.69 1007.86 1005.61 1004.08 1004.25 1004.65 1004.84 1004.43 1004.70 1005.65 1006.58 1007.01 1007.44 1007.48 1006.44 1006.68 1006.47 1006.43 1006.58 1006.39 1005.85 1005.95 1005.86 1006.02 1005.92 1005.25 1006.42 1006.42 1006.34 1006.37 1006.64 1006.52 1006.80 1006.94 1007.39
1018.72 1018.29 1017.88 1017.59 1017.20 1016.15 1013.75 1012.98 1012.34 1012.09 1010.69 1006.07 1004.18 1002.91 1003.56 1004.35 1004.24 1004.00 1004.29 1005.30 1006.21 1006.72 1007.41 1006.89 1006.26 1006.07 1005.97 1005.71 1005.72 1005.57 1005.09 1005.37 1005.83 1006.32 1006.46 1006.15 1006.57 1005.69 1005.92 1006.45 1006.15 1005.89 1005.84 1006.07 1006.60
1018.58 1018.10 1017.86 1017.50 1017.41 1015.18 1014.17 1013.39 1012.59 1012.43 1009.32 1005.75 1003.94 1003.63 1004.30 1004.31 1004.26 1004.34 1004.81 1005.12 1005.61 1006.59 1006.86 1006.76 1005.87 1005.70 1005.02 1004.72 1004.87 1004.80 1004.96 1005.53 1006.26 1006.82 1007.01 1006.41 1006.60 1005.73 1005.40 1004.39 1004.78 1005.11 1005.48 1005.69 1006.34
1018.25 1017.64 1017.63 1017.06 1015.93 1014.39 1014.42 1014.00 1013.48 1011.54 1008.24 1006.28 1005.11 1004.26 1004.50 1004.69 1004.70 1004.87 1005.41 1006.03 1006.58 1007.18 1007.60 1006.87 1005.93 1005.19 1004.72 1004.60 1004.07 1004.56 1005.93 1006.63 1007.40 1007.43 1007.16 1006.03 1006.42 1005.07 1003.65 1003.00 1002.89 1003.78 1004.75 1005.43 1005.94
1017.82 1017.04 1015.91 1015.21 1014.52 1015.03 1014.96 1014.68 1013.38 1010.47 1008.45 1006.80 1005.93 1004.81 1005.13 1005.05 1004.95 1005.08 1005.61 1006.45 1006.67 1007.10 1007.84 1007.64 1006.47 1005.15 1004.46 1004.41 1004.32 1004.74 1005.51 1006.72 1007.49 1007.77 1007.03 1006.16 1005.82 1004.55 1003.38 1002.32 1002.32 1002.83 1003.97 1004.96 1006.08
1017.45 1016.42 1015.53 1013.17 1013.76 1014.91 1015.41 1014.86 1012.41 1010.28 1008.40 1007.51 1006.27 1005.76 1005.81 1005.54 1005.48 1005.42 1005.72 1006.22 1006.29 1006.68 1007.62 1007.57 1006.57 1005.30 1004.73 1004.32 1004.35 1004.35 1005.04 1005.20 1006.91 1007.45 1007.41 1006.17 1005.38 1004.10 1003.16 1003.35 1002.71 1003.65 1004.80 1006.13 1006.63
1018.12 1016.95 1014.72 1012.30 1013.01 1014.40 1015.03 1014.10 1011.94 1009.87 1008.76 1007.82 1007.47 1006.85 1006.97 1006.60 1006.64 1006.40 1006.28 1006.02 1006.06 1006.10 1006.14 1007.11 1006.98 1005.98 1004.94 1004.25 1003.70 1003.82 1003.81 1005.14 1006.87 1007.41 1007.41 1006.73 1006.21 1004.93 1004.25 1004.88 1005.16 1005.39 1005.85 1006.72 1007.10
1018.20 1016.81 1012.54 1011.93 1012.63 1014.24 1014.64 1013.28 1011.35 1009.70 1009.06 1008.30 1007.66 1007.50 1007.42 1007.39 1007.45 1007.07 1006.96 1007.04 1006.89 1006.73 1007.00 1007.35 1007.57 1006.72 1005.92 1005.18 1004.53 1004.29 1004.12 1004.69 1005.68 1006.52 1006.73 1006.75 1006.53 1005.02 1004.56 1005.18 1006.16 1006.83 1007.24 1007.38 1008.23
1017.92 1016.42 1012.60 1012.30 1013.08 1013.81 1013.74 1012.34 1011.09 1009.67 1008.99 1008.86 1007.66 1007.08 1007.29 1007.62 1007.63 1007.53 1007.61 1007.85 1007.45 1007.56 1007.50 1007.53 1008.13 1008.14 1006.80 1005.38 1004.81 1004.72 1004.45 1004.47 1005.42 1006.44 1006.42 1006.42 1005.98 1004.54 1004.01 1004.60 1006.53 1007.18 1008.14 1008.15 1009.16
1018.08 1015.93 1012.12 1012.29 1013.27 1013.67 1013.01 1012.13 1011.24 1009.95 1008.93 1008.47 1007.76 1007.08 1007.35 1007.89 1008.19 1007.79 1007.90 1008.43 1008.17 1008.39 1009.37 1008.94 1009.10 1009.06 1007.52 1005.72 1004.71 1004.67 1004.62 1003.82 1004.74 1005.56 1006.23 1006.59 1005.99 1004.97 1005.53 1005.74 1005.73 1007.14 1007.82 1009.56 1009.97
1018.50 1016.52 1014.06 1013.09 1013.03 1013.31 1013.11 1012.14 1011.04 1009.34 1008.43 1007.77 1007.67 1007.08 1007.46 1007.90 1008.16 1008.31 1008.21 1008.49 1008.77 1009.50 1009.35 1009.34 1009.89 1009.54 1008.44 1006.72 1005.71 1005.03 1004.87 1004.71 1004.91 1005.79 1006.14 1005.87 1006.05 1006.01 1005.80 1006.13 1007.15 1007.43 1009.07 1009.51 1010.38
1018.40 1016.81 1015.47 1014.72 1013.82 1013.55 1013.11 1012.02 1010.88 1009.95 1008.38 1007.29 1007.15 1007.07 1007.51 1008.23 1008.57 1008.65 1008.57 1009.07 1009.56 1009.86 1010.16 1010.72 1011.26 1010.49 1008.69 1006.93 1005.94 1005.34 1004.85 1005.21 1004.63 1005.22 1005.86 1006.34 1006.48 1006.49 1006.55 1006.24 1007.48 1008.60 1009.94 1009.98 1010.55
1018.35 1017.05 1016.01 1015.30 1014.37 1013.67 1012.58 1011.52 1010.35 1009.39 1009.10 1008.01 1007.82 1007.79 1007.79 1008.37 1008.66 1008.76 1008.94 1009.32 1010.02 1010.54 1011.27 1011.64 1012.03 1011.48 1009.43 1007.34 1006.17 1005.55 1005.16 1004.99 1005.49 1005.38 1007.15 1006.54 1007.57 1006.87 1007.76 1007.37 1007.60 1008.31 1009.13 1009.99 1010.64
1017.68 1016.93 1016.39 1015.27 1014.59 1013.89 1012.78 1011.61 1010.20 1009.30 1008.35 1008.02 1007.92 1007.90 1007.88 1008.26 1008.31 1008.53 1008.76 1009.10 1009.70 1010.42 1011.84 1012.33 1012.82 1012.64 1010.84 1008.48 1007.01 1006.22 1006.18 1005.62 1006.36 1006.54 1006.78 1008.05 1008.89 1008.48 1009.05 1008.91 1008.76 1009.21 1009.41 1010.26 1010.95
Wind_Speed
14 15 15 16 17 18 19 20 20 19 19 19 18 16 15 14 15 3 6 11 8 8 5 1 4 2 2 3 5 3 3 3 4 7 8 5 19 8 6 16 6 5 9 17 17
15 16 15 17 18 18 19 19 20 20 18 18 17 16 14 12 3 6 11 7 12 12 4 4 3 4 3 4 2 5 4 7 8 5 13 10 25 15 11 10 9 11 11 9 19
15 17 18 19 20 20 20 20 21 20 18 16 17 16 12 7 4 6 5 7 8 10 4 2 2 3 3 1 4 4 7 4 14 11 9 14 9 7 18 4 17 19 16 12 16
15 16 17 18 20 20 21 21 21 20 18 16 15 13 9 2 1 3 7 8 8 6 3 2 3 2 2 3 2 3 8 5 7 8 9 14 10 11 7 8 15 15 13 8 10
15 18 19 20 20 21 21 21 22 20 17 15 13 9 3 3 9 3 8 6 5 5 5 3 1 4 2 4 4 4 6 9 3 13 11 11 9 8 7 16 13 13 11 8 8
15 17 19 21 21 21 22 22 21 19 15 13 9 1 2 3 3 9 9 5 4 4 5 6 5 6 4 5 4 5 6 5 6 12 10 13 6 7 8 17 15 14 9 8 9
16 18 21 23 23 23 24 23 21 20 14 9 5 3 1 14 2 6 8 6 4 4 2 5 4 2 4 8 2 4 8 7 5 8 6 15 5 12 17 18 18 16 11 9 10
17 19 21 23 25 25 26 26 24 18 8 5 3 2 8 5 5 4 2 4 5 6 4 9 3 3 2 2 9 6 3 2 6 7 11 11 8 13 18 19 18 17 14 13 10
17 18 21 24 25 27 27 31 20 3 6 8 2 1 11 7 6 8 6 4 5 5 6 10 1 1 6 4 6 7 3 2 9 2 6 5 7 20 22 19 17 16 16 14 12
17 19 21 24 26 26 29 26 4 4 3 4 3 3 6 3 5 7 8 5 4 4 5 2 5 3 4 5 4 4 3 4 2 7 3 3 9 20 20 21 20 18 15 14 13
17 19 21 25 26 25 16 8 10 7 2 9 10 7 13 7 8 5 7 5 2 3 3 5 3 5 7 7 7 3 4 6 7 7 6 8 14 22 20 18 18 17 16 16 15
16 18 21 25 28 24 1 5 3 9 12 7 17 15 18 3 5 9 8 5 4 3 2 5 5 11 7 6 4 5 7 10 8 9 8 7 12 21 21 22 22 20 16 18 12
14 17 20 26 29 4 5 5 7 11 2 11 7 7 7 11 9 11 9 5 3 3 5 7 10 5 5 7 5 7 6 7 10 7 5 7 3 7 9 11 16 17 19 15 19
13 15 17 27 6 7 7 9 16 4 4 9 6 8 7 7 5 9 8 7 3 7 5 6 12 8 6 8 4 9 7 7 5 1 5 4 6 5 8 15 15 18 13 14 15
13 13 13 6 5 5 8 15 17 4 4 4 4 4 7 8 3 5 6 4 7 7 7 10 3 5 5 8 5 14 9 7 4 4 3 3 5 8 6 10 17 20 19 16 16
15 14 12 3 2 10 11 14 3 5 6 6 3 5 6 4 4 4 4 3 5 4 3 8 5 4 6 6 5 9 2 4 4 3 0 8 7 7 7 18 18 16 20 18 16
16 17 7 2 6 4 9 5 5 3 6 4 3 4 6 7 5 7 7 5 5 2 5 7 6 5 4 5 6 3 6 4 6 3 6 6 4 9 9 16 18 19 19 18 17
17 21 8 7 6 1 4 5 3 4 6 7 9 4 6 2 6 5 8 7 5 4 2 1 10 3 3 6 5 7 8 7 6 4 5 1 5 5 8 9 10 16 15 9 11
17 4 5 6 9 4 5 3 7 5 4 7 10 6 8 7 1 4 9 11 9 9 9 3 7 5 9 7 5 3 3 9 5 2 3 3 6 6 13 12 4 10 13 12 11
6 5 6 3 10 5 5 6 5 3 7 6 3 3 7 8 7 5 2 6 6 10 8 7 7 4 5 4 6 8 5 1 2 4 5 1 2 4 8 8 4 11 13 11 13
2 5 5 8 6 5 4 7 5 7 7 3 7 4 3 4 4 5 5 4 10 8 2 5 4 6 5 2 1 7 5 2 5 5 7 2 6 5 5 6 6 8 7 9 13
2 3 4 4 4 3 3 4 6 7 7 7 5 1 2 3 4 4 4 4 9 3 7 6 6 4 10 10 12 10 10 5 6 5 2 4 7 5 7 13 14 12 7 9 8
2 5 5 6 2 2 5 6 7 16 15 6 4 4 4 1 3 1 4 6 11 8 3 3 2 3 12 8 4 2 3 3 3 3 4 3 6 4 1 8 15 17 12 8 11
2 3 5 4 3 6 2 7 6 7 11 9 6 3 3 3 1 4 5 4 6 5 2 5 3 8 8 7 3 2 3 3 5 4 4 3 5 5 5 13 12 17 15 16 15
1 4 1 4 4 5 1 5 12 7 5 4 5 6 6 3 4 4 3 3 6 7 5 6 2 6 11 9 4 4 3 2 5 1 6 3 5 1 5 18 17 16 14 17 16
2 1 4 3 4 3 4 6 8 13 6 6 4 1 5 3 7 4 2 2 2 5 4 5 3 7 6 7 6 4 4 6 4 8 5 8 4 6 5 15 16 16 16 16 16
2 4 3 4 4 3 2 7 6 5 6 4 5 2 5 4 3 4 3 3 7 5 3 4 3 5 7 8 8 5 4 7 9 4 6 6 4 3 10 6 8 11 13 15 15
Wind_Direction
345 340 333 329 326 326 327 326 323 320 322 321 322 322 320 317 307 155 236 219 183 182 138 122 162 250 120 251 198 136 49 285 244 154 152 155 116 161 107 134 181 200 140 169 136
341 338 333 326 324 324 324 322 319 319 321 321 321 322 322 325 278 234 247 223 224 156 140 148 66 33 298 230 232 127 146 230 200 160 150 158 121 128 131 136 95 100 145 135 138
341 338 331 327 325 323 322 320 317 317 320 319 321 319 319 314 307 257 199 203 149 169 106 128 128 166 208 346 231 197 210 236 278 202 157 138 128 119 121 142 153 149 164 151 145
338 334 328 323 321 320 319 316 313 314 316 315 319 315 320 257 201 301 127 155 160 156 115 100 91 154 253 238 226 288 249 204 284 108 145 143 140 141 138 178 157 146 157 149 147
335 331 327 322 320 319 316 313 310 309 310 312 316 318 305 348 254 154 137 139 143 157 166 151 163 165 245 241 345 194 294 313 167 159 147 135 137 138 125 135 141 147 148 164 178
330 328 324 322 322 320 314 311 305 303 304 306 305 1 309 299 222 149 141 136 224 206 157 165 200 197 255 259 140 271 294 266 271 154 149 132 138 93 148 143 147 153 174 170 167
331 330 327 325 322 321 316 311 306 301 295 287 276 244 283 237 269 159 153 185 214 208 223 197 186 208 264 330 328 250 307 341 257 157 108 110 97 154 155 152 155 167 177 176 187
333 329 328 325 323 322 319 311 310 303 280 229 193 228 255 271 142 150 224 269 263 247 241 276 249 237 219 275 350 336 50 46 280 131 158 109 188 158 164 158 167 176 181 184 192
330 329 328 326 324 324 323 314 312 338 131 147 130 126 273 303 162 212 166 204 224 262 249 274 8 162 13 58 2 6 258 214 322 153 162 112 148 172 177 166 173 181 186 188 182
331 331 329 327 325 327 325 311 264 107 153 190 247 344 282 260 249 175 208 226 199 279 342 356 46 49 38 72 224 257 291 304 230 289 163 140 188 176 179 170 182 186 186 185 187
331 332 331 328 324 325 338 354 7 351 93 221 241 256 291 278 271 221 175 189 99 79 199 289 67 238 231 198 217 244 274 276 262 268 179 197 165 180 182 181 188 190 189 192 199
329 332 333 329 320 321 298 5 258 278 304 236 252 251 250 70 304 302 117 146 117 209 231 356 239 241 240 257 255 270 267 272 290 261 175 166 187 180 179 194 186 189 190 196 194
327 330 334 330 318 357 299 251 319 355 286 294 228 221 219 149 215 249 147 165 148 215 227 190 243 240 223 275 288 272 232 253 236 294 230 113 347 191 214 197 191 192 196 193 192
324 329 336 329 35 326 293 317 338 340 29 276 228 248 167 161 261 201 171 142 195 208 232 232 259 241 260 256 179 277 225 248 277 115 229 125 235 231 185 198 198 199 201 195 196
319 327 335 343 286 329 272 334 322 62 3 257 221 166 129 150 165 237 162 92 192 229 114 245 270 241 222 234 224 245 241 235 245 257 64 294 99 253 139 201 205 208 205 197 193
313 317 336 62 273 243 307 299 28 49 257 302 145 177 107 233 253 50 148 100 198 195 236 236 257 236 222 295 277 263 281 12 40 114 291 241 171 263 196 205 198 207 206 203 190
310 304 297 235 242 300 344 8 54 172 310 343 291 165 156 188 242 144 164 185 175 101 303 314 273 260 244 315 311 119 63 339 341 359 214 246 112 234 233 213 201 189 196 199 190
310 303 243 209 226 262 14 48 181 253 253 316 337 294 172 134 261 193 143 197 261 116 102 191 317 197 238 196 217 272 158 160 200 218 245 111 218 271 273 248 199 174 185 159 171
312 306 267 242 195 121 83 104 210 226 312 352 334 28 4 352 220 143 180 196 204 171 171 177 259 331 313 282 155 257 179 195 183 211 356 252 326 316 7 357 164 134 105 120 121
327 318 261 213 139 100 83 234 240 281 351 6 318 45 27 339 33 13 190 243 225 193 147 225 295 239 294 339 263 170 195 192 343 208 250 350 246 240 30 346 18 99 112 112 111
329 331 264 144 97 66 169 236 282 279 330 317 312 287 32 358 357 324 5 54 357 328 142 143 143 279 24 296 37 351 303 102 138 161 178 204 259 219 101 105 79 76 87 103 111
323 315 252 39 88 178 209 217 321 286 304 274 262 182 88 6 316 339 70 48 341 358 165 217 148 272 244 251 269 246 263 191 138 259 133 123 267 285 117 115 130 109 89 95 106
266 261 296 115 161 249 293 282 266 280 279 280 287 157 100 53 333 327 57 73 35 59 55 316 300 1 331 342 33 114 320 350 88 99 181 103 284 74 35 137 136 130 101 92 114
312 336 309 38 174 155 238 276 267 272 278 244 249 139 106 37 349 296 4 58 85 53 299 149 169 165 196 217 171 296 39 342 115 78 197 189 147 350 74 108 98 100 118 120 119
225 251 224 323 334 354 203 282 283 292 269 304 188 163 159 156 357 309 28 33 46 330 54 86 30 348 282 258 309 242 166 277 66 283 64 196 33 150 156 134 129 117 126 117 117
226 339 341 263 272 257 208 244 230 263 234 306 79 6 79 149 189 247 175 159 198 13 61 3 357 5 296 289 261 250 243 92 90 75 134 128 117 94 355 105 134 138 126 122 127
291 318 109 275 334 13 307 306 297 247 239 197 160 110 80 188 160 242 224 161 168 128 109 72 67 28 288 320 309 313 17 108 115 88 89 85 315 69 58 49 146 132 128 135 135